• In Hungary
  • List of Countries
  • For 7 days
  • Water Temperature
  • Satellite Maps
  • Weather Map
  • News
  • Weather Widgets
  • user-avatar
    Login

    Hourly Weather Atyrau

    Today, 19 September, Wednesday

    Time Temperature Precipitation Wind Pressure Humidity
    00:00 +17°C° 0 mm 7 mps 762 mmHg 63%
    01:00 +16°C° 0 mm 7 mps 762 mmHg 61%
    02:00 +16°C° 0 mm 7 mps 762 mmHg 58%
    03:00 +16°C° 0 mm 6 mps 762 mmHg 57%
    04:00 +16°C° 0 mm 6 mps 762 mmHg 54%
    05:00 +16°C° 0 mm 6 mps 762 mmHg 52%
    06:00 +16°C° 0 mm 6 mps 762 mmHg 50%
    07:00 +17°C° 0 mm 7 mps 762 mmHg 47%
    08:00 +18°C° 0 mm 8 mps 762 mmHg 45%
    09:00 +21°C° 0 mm 8 mps 762 mmHg 42%
    10:00 +21°C° 0 mm 9 mps 762 mmHg 41%
    11:00 +22°C° 0 mm 9 mps 761 mmHg 39%
    12:00 +23°C° 0 mm 9 mps 761 mmHg 38%
    13:00 +23°C° 0 mm 9 mps 761 mmHg 39%
    14:00 +22°C° 0 mm 9 mps 761 mmHg 39%
    15:00 +22°C° 0 mm 9 mps 760 mmHg 40%
    16:00 +22°C° 0 mm 9 mps 760 mmHg 40%
    17:00 +21°C° 0 mm 9 mps 761 mmHg 40%
    18:00 +21°C° 0 mm 9 mps 761 mmHg 40%
    19:00 +21°C° 0 mm 9 mps 761 mmHg 39%
    20:00 +20°C° 0 mm 8 mps 761 mmHg 37%
    21:00 +18°C° 0 mm 7 mps 762 mmHg 35%
    22:00 +18°C° 0 mm 7 mps 762 mmHg 36%
    23:00 +17°C° 0 mm 7 mps 762 mmHg 37%

    Tomorrow, 20 September, Thursday

    Time Temperature Precipitation Wind Pressure Humidity
    00:00 +16°C° 0 mm 7 mps 762 mmHg 38%
    01:00 +16°C° 0 mm 7 mps 763 mmHg 39%
    02:00 +15°C° 0 mm 7 mps 763 mmHg 41%
    03:00 +15°C° 0 mm 7 mps 763 mmHg 42%
    04:00 +15°C° 0 mm 7 mps 763 mmHg 44%
    05:00 +15°C° 0 mm 6 mps 763 mmHg 46%
    06:00 +14°C° 0 mm 6 mps 764 mmHg 47%
    07:00 +16°C° 0 mm 7 mps 764 mmHg 45%
    08:00 +17°C° 0 mm 7 mps 764 mmHg 43%
    09:00 +18°C° 0 mm 8 mps 764 mmHg 40%
    10:00 +20°C° 0 mm 8 mps 764 mmHg 39%
    11:00 +21°C° 0 mm 7 mps 764 mmHg 38%
    12:00 +23°C° 0 mm 7 mps 764 mmHg 37%
    13:00 +23°C° 0 mm 7 mps 764 mmHg 38%
    14:00 +23°C° 0 mm 7 mps 763 mmHg 39%
    15:00 +24°C° 0 mm 7 mps 763 mmHg 40%
    16:00 +23°C° 0 mm 6 mps 763 mmHg 42%
    17:00 +23°C° 0 mm 5 mps 763 mmHg 44%
    18:00 +23°C° 0 mm 4 mps 763 mmHg 46%
    19:00 +22°C° 0 mm 3 mps 763 mmHg 49%
    20:00 +21°C° 0 mm 2 mps 763 mmHg 52%
    21:00 +21°C° 0 mm 1 mps 763 mmHg 55%
    22:00 +20°C° 0 mm 2 mps 763 mmHg 55%
    23:00 +20°C° 0 mm 2 mps 763 mmHg 56%

    Day after tomorrow, 21 September, Friday

    Time Temperature Precipitation Wind Pressure Humidity
    00:00 +20°C° 0 mm 3 mps 763 mmHg 56%
    01:00 +20°C° 0 mm 3 mps 763 mmHg 57%
    02:00 +20°C° 0 mm 3 mps 763 mmHg 58%
    03:00 +20°C° 0 mm 4 mps 763 mmHg 58%
    04:00 +20°C° 0.1 mm 4 mps 763 mmHg 59%
    05:00 +20°C° 0.1 mm 4 mps 763 mmHg 59%
    06:00 +20°C° 0.1 mm 4 mps 763 mmHg 60%
    07:00 +22°C° 0 mm 5 mps 763 mmHg 54%
    08:00 +23°C° 0 mm 5 mps 763 mmHg 49%
    09:00 +26°C° 0 mm 6 mps 763 mmHg 44%
    10:00 +27°C° 0 mm 6 mps 763 mmHg 43%
    11:00 +27°C° 0 mm 6 mps 763 mmHg 41%
    12:00 +28°C° 0 mm 6 mps 763 mmHg 40%
    13:00 +28°C° 0 mm 6 mps 763 mmHg 41%
    14:00 +27°C° 0 mm 6 mps 764 mmHg 42%
    15:00 +27°C° 0 mm 6 mps 764 mmHg 44%
    16:00 +27°C° 0 mm 5 mps 764 mmHg 44%
    17:00 +26°C° 0 mm 5 mps 764 mmHg 44%
    18:00 +26°C° 0 mm 4 mps 765 mmHg 44%
    19:00 +25°C° 0 mm 4 mps 765 mmHg 46%
    20:00 +23°C° 0 mm 4 mps 766 mmHg 47%
    21:00 +22°C° 0 mm 3 mps 766 mmHg 49%
    22:00 +22°C° 0 mm 3 mps 766 mmHg 50%
    23:00 +21°C° 0 mm 3 mps 766 mmHg 51%

    22 September, Saturday

    Time Temperature Precipitation Wind Pressure Humidity
    00:00 +21°C° 0 mm 3 mps 767 mmHg 52%
    01:00 +20°C° 0 mm 3 mps 767 mmHg 50%
    02:00 +19°C° 0 mm 3 mps 767 mmHg 48%
    03:00 +19°C° 0 mm 3 mps 767 mmHg 46%
    04:00 +19°C° 0 mm 3 mps 768 mmHg 43%
    05:00 +18°C° 0 mm 3 mps 768 mmHg 40%
    06:00 +18°C° 0 mm 3 mps 769 mmHg 37%
    07:00 +19°C° 0 mm 3 mps 769 mmHg 35%
    08:00 +21°C° 0 mm 3 mps 769 mmHg 32%
    09:00 +22°C° 0 mm 4 mps 770 mmHg 30%
    10:00 +22°C° 0 mm 3 mps 770 mmHg 31%
    11:00 +24°C° 0 mm 3 mps 770 mmHg 32%
    12:00 +25°C° 0 mm 3 mps 770 mmHg 32%
    13:00 +25°C° 0 mm 3 mps 769 mmHg 32%
    14:00 +25°C° 0 mm 3 mps 769 mmHg 31%
    15:00 +26°C° 0 mm 2 mps 769 mmHg 31%
    16:00 +25°C° 0 mm 2 mps 769 mmHg 32%
    17:00 +24°C° 0 mm 2 mps 769 mmHg 34%
    18:00 +24°C° 0 mm 2 mps 769 mmHg 35%
    19:00 +23°C° 0 mm 2 mps 770 mmHg 36%
    20:00 +21°C° 0 mm 2 mps 770 mmHg 36%
    21:00 +21°C° 0 mm 2 mps 770 mmHg 37%
    22:00 +20°C° 0 mm 2 mps 770 mmHg 37%
    23:00 +20°C° 0 mm 2 mps 770 mmHg 36%

    23 September, Sunday

    Time Temperature Precipitation Wind Pressure Humidity
    00:00 +19°C° 0 mm 2 mps 770 mmHg 35%
    01:00 +19°C° 0 mm 2 mps 770 mmHg 36%
    02:00 +18°C° 0 mm 2 mps 770 mmHg 36%
    03:00 +18°C° 0 mm 2 mps 770 mmHg 36%
    04:00 +18°C° 0 mm 2 mps 770 mmHg 36%
    05:00 +18°C° 0 mm 2 mps 770 mmHg 36%
    06:00 +18°C° 0 mm 2 mps 770 mmHg 36%
    07:00 +20°C° 0 mm 3 mps 770 mmHg 33%
    08:00 +21°C° 0 mm 3 mps 770 mmHg 30%
    09:00 +23°C° 0 mm 4 mps 770 mmHg 27%
    10:00 +23°C° 0 mm 4 mps 769 mmHg 26%
    11:00 +25°C° 0 mm 4 mps 769 mmHg 25%
    12:00 +26°C° 0 mm 4 mps 769 mmHg 25%
    13:00 +26°C° 0 mm 4 mps 768 mmHg 24%
    14:00 +26°C° 0 mm 4 mps 768 mmHg 24%
    15:00 +26°C° 0 mm 4 mps 768 mmHg 24%
    16:00 +25°C° 0 mm 4 mps 767 mmHg 26%
    17:00 +24°C° 0 mm 3 mps 767 mmHg 27%
    18:00 +24°C° 0 mm 3 mps 767 mmHg 29%
    19:00 +22°C° 0 mm 3 mps 767 mmHg 30%
    20:00 +22°C° 0 mm 4 mps 767 mmHg 31%
    21:00 +21°C° 0 mm 4 mps 767 mmHg 32%
    22:00 +21°C° 0 mm 5 mps 766 mmHg 34%
    23:00 +21°C° 0 mm 5 mps 766 mmHg 36%

    24 September, Monday

    Time Temperature Precipitation Wind Pressure Humidity
    00:00 +20°C° 0 mm 5 mps 766 mmHg 38%
    01:00 +20°C° 0 mm 5 mps 765 mmHg 39%
    02:00 +20°C° 0 mm 6 mps 765 mmHg 41%
    03:00 +20°C° 0 mm 6 mps 765 mmHg 42%
    04:00 +19°C° 0 mm 6 mps 765 mmHg 44%
    05:00 +19°C° 0 mm 6 mps 765 mmHg 46%
    06:00 +19°C° 0 mm 6 mps 765 mmHg 48%
    07:00 +21°C° 0 mm 7 mps 765 mmHg 42%
    08:00 +22°C° 0 mm 8 mps 764 mmHg 37%
    09:00 +24°C° 0 mm 8 mps 764 mmHg 31%
    10:00 +26°C° 0 mm 9 mps 764 mmHg 29%
    11:00 +26°C° 0 mm 9 mps 764 mmHg 27%
    12:00 +27°C° 0 mm 9 mps 763 mmHg 25%
    13:00 +27°C° 0 mm 8 mps 763 mmHg 25%
    14:00 +27°C° 0 mm 8 mps 763 mmHg 24%
    15:00 +27°C° 0 mm 8 mps 762 mmHg 24%
    16:00 +26°C° 0 mm 7 mps 762 mmHg 25%
    17:00 +26°C° 0 mm 6 mps 762 mmHg 27%
    18:00 +25°C° 0 mm 5 mps 762 mmHg 29%
    19:00 +25°C° 0.1 mm 5 mps 762 mmHg 33%
    20:00 +25°C° 0.1 mm 5 mps 762 mmHg 36%
    21:00 +23°C° 0.1 mm 5 mps 761 mmHg 40%
    22:00 +22°C° 0.5 mm 6 mps 761 mmHg 49%
    23:00 +20°C° 0.5 mm 6 mps 761 mmHg 58%
    Show more